#timestamp,LO_Frequency,Hit,StdDev 
1598243915.3,286047009.1,P
1598243935.2,286047007.8,P
1598243955.0,286047011.3,P
1598243955.9,286047011.3,Y
1598243975.8,286047004.2,P
1598243995.6,286046999.8,N
1598244015.4,286046998.9,N
1598244035.3,286047001.2,N
1598244055.1,286047000.0,N
1598244075.8,286047000.1,N
1598244095.7,286047002.6,N
1598244115.5,286047004.4,N
1598244135.4,286047004.1,N
1598244155.2,286047003.8,N
1598244175.0,286047001.6,N
1598244175.9,286047001.6,N
1598244195.8,286047001.6,N
1598244215.6,286047000.1,N
1598244235.5,286046999.8,N
1598244255.3,286047001.2,N
1598244275.1,286046999.3,N
1598244295.9,286046999.1,N
1598244315.7,286046999.0,N
1598244335.5,286046999.6,N
1598244355.4,286046997.4,N
1598244375.2,286046997.7,N
1598244395.1,286046997.7,N
1598244396.0,286046997.7,N
1598244415.8,286046997.1,N
1598244435.6,286046996.9,N
1598244455.5,286046997.2,N
1598244475.3,286046999.2,N
1598244495.1,286046999.2,N
1598244515.9,286046996.9,N
1598244535.7,286046999.0,N
1598244555.6,286046999.3,N
1598244575.4,286046997.0,N
1598244595.2,286046998.4,N
1598244615.1,286047000.7,N
1598244616.0,286047000.7,N
1598244635.8,286047000.2,N
1598244655.6,286046999.8,N
1598244675.5,286047001.8,N
1598244695.3,286047001.9,N
1598244715.2,286047003.9,N
1598244735.9,286047003.7,N
1598244755.7,286047001.8,N
1598244775.6,286047002.4,N
1598244795.4,286046999.9,N
1598244815.2,286046999.8,N
1598244835.1,286047002.5,N
1598244836.0,286047002.5,N
1598244855.8,286047004.2,N
1598244875.7,286047004.0,N
1598244895.5,286047002.6,N
1598244915.3,286047003.9,N
1598244935.2,286047001.8,N
1598244955.0,286047001.5,N
1598244955.9,286047001.5,N
1598244975.7,286047001.5,N
1598244995.6,286047004.1,N
1598245015.4,286047003.9,N
1598245035.3,286047003.8,N
1598245055.1,286047004.1,N
1598245056.0,286047004.1,N
1598245075.8,286047003.1,N
1598245095.7,286047002.1,N
1598245115.5,286046999.8,N
1598245135.3,286047001.5,N
1598245155.2,286047003.9,N
1598245175.0,286047005.2,Y
1598245175.9,286047005.2,P
1598245195.8,286047001.5,N
